This demonstration page uses our WeatherBlox Daily Observations layout. Learn more.

Left ArrowRight Arrow

38.88101, -77.10428

Hourly Observations for March 26, 2019

Temp ( °F °C ) Dew Point ( °F °C ) Humidity (%) Winds ( mph kmh ) Pressure ( in mb ) Visibility ( mi km ) Precip ( " mm )
12:52 am 00:52 Cloudy 45 7.2 37 2.8 74 74 NNE 15 24 30.1 1019 10 16.0934 0 0
1:07 am 01:07 Cloudy 45 7.2 37 2.8 74 74 NNE 14 22 30.11 1020 10 16.0934 0 0
1:16 am 01:16 Cloudy 45 7.2 37 2.8 74 74 N 13 20 30.11 1020 10 16.0934 0 0
1:52 am 01:52 Cloudy 44 6.7 36 2.2 73 73 NNE 14 22 30.11 1020 10 16.0934 0 0
2:34 am 02:34 Cloudy 45 7.2 35 1.7 68 68 NNE 12 19 30.11 1020 10 16.0934 0 0
2:52 am 02:52 Cloudy 45 7.2 34 1.1 66 66 N 12 19 30.11 1020 10 16.0934 0 0
3:52 am 03:52 Cloudy 44 6.7 32 0 63 63 NNE 15 24 30.12 1020 10 16.0934 0 0
4:52 am 04:52 Cloudy 44 6.7 29 -1.7 55 55 NNE 16 26 30.13 1020 10 16.0934 0 0
5:52 am 05:52 Cloudy 43 6.1 26 -3.3 51 51 N 18 30 30.16 1021 10 16.0934 0 0
6:52 am 06:52 Mostly Clear 40 4.4 17 -8.3 40 40 NNE 18 30 30.19 1022 10 16.0934 0 0
7:52 am 07:52 Mostly Sunny 39 3.9 13 -10.6 34 34 NNE 14 22 30.24 1024 10 16.0934 0 0
8:52 am 08:52 Mostly Sunny 41 5 11 -11.7 29 29 NNE 17 28 30.28 1025 10 16.0934 0 0
9:52 am 09:52 Mostly Sunny 43 6.1 10 -12.2 26 26 NNE 16 26 30.3 1026 10 16.0934 0 0
10:52 am 10:52 Sunny 44 6.7 10 -12.2 25 25 N 10 17 30.32 1027 10 16.0934 0 0
11:52 am 11:52 Mostly Sunny 46 7.8 11 -11.7 24 24 NNE 8 13 30.32 1027 10 16.0934 0 0
12:52 pm 12:52 Sunny 48 8.9 12 -11.1 23 23 NNE 10 17 30.31 1026 10 16.0934 0 0
1:52 pm 13:52 Sunny 50 10 13 -10.6 22 22 N 13 20 30.3 1026 10 16.0934 0 0
2:52 pm 14:52 Sunny 51 10.6 13 -10.6 22 22 N 12 19 30.28 1026 10 16.0934 0 0
3:52 pm 15:52 Sunny 52 11.1 12 -11.1 20 20 N 12 19 30.28 1025 10 16.0934 0 0
4:52 pm 16:52 Sunny 51 10.6 13 -10.6 22 22 NNE 13 20 30.28 1025 10 16.0934 0 0
5:15 pm 17:15 Sunny 51 10.6 14 -10 23 23 NNE 14 22 30.29 1026 10 16.0934 0 0
5:52 pm 17:52 Sunny 50 10 13 -10.6 22 22 N 14 22 30.29 1026 10 16.0934 0 0
6:52 pm 18:52 Sunny 48 8.9 15 -9.4 27 27 NNW 16 26 30.32 1027 10 16.0934 0 0
7:52 pm 19:52 Clear 46 7.8 15 -9.4 29 29 N 12 19 30.34 1027 10 16.0934 0 0
8:52 pm 20:52 Clear 46 7.8 14 -10 27 27 N 15 24 30.36 1028 10 16.0934 0 0
9:52 pm 21:52 Clear 43 6.1 15 -9.4 32 32 N 8 13 30.37 1029 10 16.0934 0 0
10:52 pm 22:52 Clear 44 6.7 14 -10 30 30 NNE 9 15 30.38 1029 10 16.0934 0 0
11:52 pm 23:52 Clear 43 6.1 18 -7.8 37 37 NE 7 11 30.39 1029 10 16.0934 0 0

Powered by AerisWeather